FW6650 Weather Reports


Display with metric or nautical units.
time (UTC)temp
F
wind
direction
speed
MPH
gust
MPH
rain 1hr
in
rain 24hr
in
rain mn
in
humidity
%
barometer
mb
20260901064027 82 355 6.0 12.0 0.00 0.00 0.00 46 1013.7
20260901063527 82 55 3.0 10.0 0.00 0.00 0.00 47 1013.7
20260901063048 82 360 3.0 10.0 0.00 0.00 0.00 47 1013.8
20260901062527 82 90 5.0 10.0 0.00 0.00 0.00 47 1013.8
20260901062031 81 65 4.0 8.0 0.00 0.00 0.00 47 1013.8
20260901061550 81 344 4.0 8.0 0.00 0.00 0.00 48 1013.8
20260901061025 81 5 2.0 9.0 0.00 0.00 0.00 50 1013.9
20260901060525 81 337 2.0 9.0 0.00 0.00 0.00 50 1013.9
20260901060052 81 330 4.0 9.0 0.00 0.00 0.00 50 1013.9
20260901055526 80 355 3.0 7.0 0.00 0.00 0.00 50 1013.9
20260901055030 80 311 3.0 9.0 0.00 0.00 0.00 50 1013.9
20260901054550 80 332 4.0 9.0 0.00 0.00 0.00 49 1013.8
20260901054029 80 10 2.0 9.0 0.00 0.00 0.00 50 1013.9
20260901053525 80 5 2.0 9.0 0.00 0.00 0.00 50 1013.9
20260901053105 80 352 4.0 9.0 0.00 0.00 0.00 50 1013.9
20260901052527 79 336 2.0 8.0 0.00 0.00 0.00 50 1013.8
20260901052025 79 22 4.0 8.0 0.00 0.00 0.00 50 1013.8
20260901051542 79 12 4.0 9.0 0.00 0.00 0.00 50 1013.8
20260901051025 79 360 3.0 9.0 0.00 0.00 0.00 50 1013.7
20260901050525 79 360 2.0 5.0 0.00 0.00 0.00 50 1013.8
20260901050049 79 360 2.0 5.0 0.00 0.00 0.00 50 1013.8
20260901045525 79 360 2.0 7.0 0.00 0.00 0.00 50 1013.7
20260901045024 79 28 2.0 7.0 0.00 0.00 0.00 49 1013.7
20260901044614 79 338 3.0 5.0 0.00 0.00 0.00 49 1013.6
20260901044028 79 17 2.0 8.0 0.00 0.00 0.00 49 1013.7
20260901043527 79 13 4.0 8.0 0.00 0.00 0.00 49 1013.5
20260901043046 78 355 3.0 8.0 0.00 0.00 0.00 49 1013.4
20260901042531 78 360 1.0 5.0 0.00 0.00 0.00 49 1013.4
20260901042034 78 350 1.0 4.0 0.00 0.00 0.00 49 1013.4
20260901041541 78 5 0.0 4.0 0.00 0.00 0.00 49 1013.4
20260901041027 78 24 2.0 4.0 0.00 0.00 0.00 50 1013.4
20260901040526 78 360 2.0 7.0 0.00 0.00 0.00 50 1013.3
20260901040051 78 23 2.0 7.0 0.00 0.00 0.00 50 1013.3
20260901035529 78 44 1.0 4.0 0.00 0.00 0.00 50 1013.2
20260901035025 78 44 1.0 4.0 0.00 0.00 0.00 49 1013.2
20260901034555 78 40 2.0 4.0 0.00 0.00 0.00 49 1013.2
20260901034029 78 46 0.0 3.0 0.00 0.00 0.00 48 1013.2
20260901033525 78 46 1.0 3.0 0.00 0.00 0.00 48 1013.2
20260901033046 79 44 1.0 4.0 0.00 0.00 0.00 47 1013.1
20260901032525 79 44 1.0 4.0 0.00 0.00 0.00 47 1013.1
20260901032025 79 21 1.0 4.0 0.00 0.00 0.00 46 1013.1
20260901031551 79 13 1.0 4.0 0.00 0.00 0.00 46 1013.1
20260901031024 78 0 1.0 3.0 0.00 0.00 0.00 46 1013.1
20260901030527 78 231 0.0 4.0 0.00 0.00 0.00 47 1013.2
20260901030053 78 277 1.0 4.0 0.00 0.00 0.00 47 1013.2
20260901025526 78 0 0.0 2.0 0.00 0.00 0.00 47 1013.3
20260901025025 79 11 0.0 4.0 0.00 0.00 0.00 46 1013.2
20260901024548 79 5 1.0 5.0 0.00 0.00 0.00 45 1013.1
20260901024025 79 355 2.0 5.0 0.00 0.00 0.00 45 1013.2
20260901023525 79 360 0.0 5.0 0.00 0.00 0.00 45 1013.2
20260901023045 80 38 1.0 7.0 0.00 0.00 0.00 44 1013.1
20260901022524 80 59 3.0 11.0 0.00 0.00 0.00 44 1013.1
20260901022024 80 55 4.0 11.0 0.00 0.00 0.00 44 1013.2
20260901021606 80 17 2.0 9.0 0.00 0.00 0.00 44 1013.1
20260901021027 80 330 2.0 9.0 0.00 0.00 0.00 44 1013.2
20260901020530 80 29 3.0 9.0 0.00 0.00 0.00 44 1013.1
20260901020101 80 338 4.0 9.0 0.00 0.00 0.00 44 1013.1
20260901015527 80 349 4.0 9.0 0.00 0.00 0.00 44 1013.0
20260901015031 80 15 3.0 9.0 0.00 0.00 0.00 44 1013.0
20260901014549 80 27 4.0 9.0 0.00 0.00 0.00 44 1013.0
20260901014028 80 17 3.0 9.0 0.00 0.00 0.00 43 1013.0
20260901013527 80 15 3.0 9.0 0.00 0.00 0.00 44 1013.0
20260901013047 80 5 5.0 9.0 0.00 0.00 0.00 43 1013.1
20260901012527 80 11 3.0 9.0 0.00 0.00 0.00 44 1013.1
20260901012027 80 348 3.0 9.0 0.00 0.00 0.00 44 1013.1
20260901011544 80 339 4.0 9.0 0.00 0.00 0.00 44 1013.2
20260901011027 80 18 3.0 8.0 0.00 0.00 0.00 44 1013.1
20260901010531 80 27 1.0 6.0 0.00 0.00 0.00 44 1013.2
20260901010043 80 0 2.0 5.0 0.00 0.00 0.00 44 1013.1
20260901005525 80 341 2.0 7.0 0.00 0.00 0.00 43 1013.2
20260901005026 80 18 3.0 8.0 0.00 0.00 0.00 43 1013.2
20260901004554 80 335 2.0 9.0 0.00 0.00 0.00 43 1013.2
20260901004024 80 32 3.0 9.0 0.00 0.00 0.00 43 1013.2
20260901003526 80 40 3.0 9.0 0.00 0.00 0.00 43 1013.2
20260901003052 80 19 4.0 11.0 0.00 0.00 0.00 43 1013.3
20260901002525 80 5 4.0 11.0 0.00 0.00 0.00 42 1013.2
20260901002028 80 27 4.0 10.0 0.00 0.00 0.00 42 1013.2
20260901001558 80 15 2.0 6.0 0.00 0.00 0.00 42 1013.2
20260901001024 80 31 3.0 9.0 0.00 0.00 0.00 43 1013.2
20260901000524 80 19 3.0 9.0 0.00 0.00 0.00 43 1013.2
20260901000049 79 355 1.0 6.0 0.00 0.00 0.00 44 1013.3
20260831235525 79 0 1.0 4.0 0.00 0.00 0.00 44 1013.4
20260831235026 79 360 2.0 4.0 0.00 0.00 0.00 44 1013.4
20260831234602 79 360 0.0 4.0 0.00 0.00 0.00 44 1013.5
20260831234026 79 0 2.0 4.0 0.00 0.00 0.00 44 1013.4
20260831233524 79 360 0.0 3.0 0.00 0.00 0.00 43 1013.5
20260831233049 79 360 1.0 3.0 0.00 0.00 0.00 44 1013.5
20260831232526 78 0 0.0 3.0 0.00 0.00 0.00 44 1013.7
20260831232028 78 0 0.0 3.0 0.00 0.00 0.00 44 1013.6
20260831231547 78 138 2.0 4.0 0.00 0.00 0.00 44 1013.6
20260831231025 78 135 2.0 4.0 0.00 0.00 0.00 44 1013.7
20260831230526 79 128 1.0 4.0 0.00 0.00 0.00 43 1013.8
20260831230051 79 360 0.0 3.0 0.00 0.00 0.00 43 1013.8
20260831225525 80 360 0.0 5.0 0.00 0.00 0.00 41 1013.8
20260831225027 80 0 1.0 6.0 0.00 0.00 0.00 41 1013.9
20260831224543 80 360 2.0 8.0 0.00 0.00 0.00 41 1013.9
20260831224027 80 360 2.0 8.0 0.00 0.00 0.00 41 1013.8
20260831223525 80 360 3.0 8.0 0.00 0.00 0.00 41 1013.9
20260831223045 80 360 4.0 8.0 0.00 0.00 0.00 42 1013.9
20260831222527 80 360 3.0 8.0 0.00 0.00 0.00 42 1013.9
20260831222027 80 360 4.0 8.0 0.00 0.00 0.00 42 1014.0
20260831221548 80 360 3.0 7.0 0.00 0.00 0.00 43 1014.1
20260831221025 79 360 1.0 3.0 0.00 0.00 0.00 43 1014.2
20260831220526 79 323 1.0 3.0 0.00 0.00 0.00 43 1014.3
20260831220106 79 0 0.0 4.0 0.00 0.00 0.00 44 1014.3
20260831215527 80 0 0.0 6.0 0.00 0.00 0.00 42 1014.2
20260831215024 80 360 1.0 8.0 0.00 0.00 0.00 42 1014.3
20260831214548 80 360 2.0 8.0 0.00 0.00 0.00 42 1014.3
20260831214025 80 360 3.0 8.0 0.00 0.00 0.00 42 1014.1
20260831213525 80 330 2.0 8.0 0.00 0.00 0.00 43 1014.2
20260831213056 80 313 2.0 6.0 0.00 0.00 0.00 42 1014.2
20260831212530 80 303 2.0 6.0 0.00 0.00 0.00 42 1014.1
20260831212027 80 308 2.0 6.0 0.00 0.00 0.00 42 1014.1
20260831211603 80 360 2.0 8.0 0.00 0.00 0.00 42 1014.1
20260831211028 80 360 3.0 8.0 0.00 0.00 0.00 42 1014.1
20260831210526 80 360 2.0 6.0 0.00 0.00 0.00 43 1014.1
20260831210051 80 360 1.0 6.0 0.00 0.00 0.00 44 1014.1
20260831205525 80 360 3.0 6.0 0.00 0.00 0.00 44 1014.1
20260831205025 80 360 2.0 6.0 0.00 0.00 0.00 44 1014.1
20260831204545 80 360 3.0 6.0 0.00 0.00 0.00 44 1014.1
20260831204028 80 360 3.0 8.0 0.00 0.00 0.00 44 1014.2
20260831203526 80 360 3.0 8.0 0.00 0.00 0.00 44 1014.1
20260831203043 80 360 2.0 6.0 0.00 0.00 0.00 44 1014.2
20260831202526 80 360 2.0 6.0 0.00 0.00 0.00 44 1014.1
20260831202026 80 360 1.0 5.0 0.00 0.00 0.00 44 1014.2
20260831201552 80 360 2.0 4.0 0.00 0.00 0.00 44 1014.1
20260831201025 81 360 0.0 4.0 0.00 0.00 0.00 44 1014.1
20260831200525 81 360 0.0 3.0 0.00 0.00 0.00 44 1014.3
20260831200046 81 360 0.0 3.0 0.00 0.00 0.00 44 1014.2
20260831195527 81 0 1.0 3.0 0.00 0.00 0.00 43 1014.1
20260831195030 82 360 1.0 4.0 0.00 0.00 0.00 44 1014.1
20260831194625 82 360 2.0 4.0 0.00 0.00 0.00 43 1014.0
20260831194025 82 360 1.0 2.0 0.00 0.00 0.00 43 1014.0
20260831193525 82 360 0.0 2.0 0.00 0.00 0.00 43 1014.1
20260831193049 82 0 1.0 2.0 0.00 0.00 0.00 43 1014.0
20260831192529 82 360 0.0 5.0 0.00 0.00 0.00 43 1014.0
20260831192025 82 360 0.0 6.0 0.00 0.00 0.00 42 1013.9
20260831191548 82 360 1.0 6.0 0.00 0.00 0.00 42 1013.9
20260831191027 82 360 3.0 6.0 0.00 0.00 0.00 42 1013.7
20260831190525 82 360 2.0 8.0 0.00 0.00 0.00 42 1013.8
20260831190048 82 360 3.0 8.0 0.00 0.00 0.00 42 1013.7
20260831185527 82 360 4.0 8.0 0.00 0.00 0.00 42 1013.7
20260831185026 82 360 4.0 9.0 0.00 0.00 0.00 42 1013.6
20260831184610 82 360 3.0 9.0 0.00 0.00 0.00 42 1013.6
20260831184025 82 360 4.0 12.0 0.00 0.00 0.00 42 1013.5
20260831183528 82 360 3.0 12.0 0.00 0.00 0.00 42 1013.5
20260831183057 82 360 4.0 12.0 0.00 0.00 0.00 42 1013.5
20260831182558 82 360 4.0 10.0 0.00 0.00 0.00 42 1013.4
20260831182027 82 360 2.0 8.0 0.00 0.00 0.00 42 1013.4
20260831181545 82 360 3.0 8.0 0.00 0.00 0.00 42 1013.4
20260831181025 82 360 2.0 6.0 0.00 0.00 0.00 42 1013.4
20260831180529 82 360 2.0 6.0 0.00 0.00 0.00 42 1013.4
20260831180047 83 360 2.0 8.0 0.00 0.00 0.00 42 1013.3
20260831175526 83 360 3.0 8.0 0.00 0.00 0.00 43 1013.3
20260831175027 83 360 2.0 6.0 0.00 0.00 0.00 43 1013.3
20260831174549 83 360 3.0 9.0 0.00 0.00 0.00 43 1013.3
20260831174026 83 360 2.0 11.0 0.00 0.00 0.00 43 1013.2
20260831173531 83 360 5.0 11.0 0.00 0.00 0.00 43 1013.2
20260831173055 83 360 3.0 6.0 0.00 0.00 0.00 43 1013.3
20260831172527 83 360 2.0 6.0 0.00 0.00 0.00 43 1013.2
20260831172025 83 360 4.0 8.0 0.00 0.00 0.00 43 1013.2
20260831171544 83 360 2.0 8.0 0.00 0.00 0.00 43 1013.2
20260831171025 83 360 2.0 8.0 0.00 0.00 0.00 43 1013.1
20260831170529 83 360 4.0 8.0 0.00 0.00 0.00 42 1013.1
20260831170052 83 360 3.0 10.0 0.00 0.00 0.00 42 1013.1
20260831165528 83 360 2.0 10.0 0.00 0.00 0.00 42 1013.1
20260831165024 83 360 6.0 10.0 0.00 0.00 0.00 42 1013.1
20260831164542 84 360 3.0 12.0 0.00 0.00 0.00 42 1013.1
20260831164027 83 360 3.0 12.0 0.00 0.00 0.00 42 1013.1
20260831163525 83 128 4.0 10.0 0.00 0.00 0.00 42 1013.2
20260831163050 84 105 4.0 13.0 0.00 0.00 0.00 42 1013.2
20260831162526 84 144 7.0 13.0 0.00 0.00 0.00 41 1013.1
20260831162027 84 138 7.0 13.0 0.00 0.00 0.00 41 1013.1
20260831161548 84 138 4.0 16.0 0.00 0.00 0.00 41 1013.2
20260831161024 84 114 7.0 16.0 0.00 0.00 0.00 41 1013.1
20260831160525 84 143 5.0 11.0 0.00 0.00 0.00 40 1013.1
20260831160051 85 117 7.0 12.0 0.00 0.00 0.00 40 1013.1
20260831155525 85 121 5.0 14.0 0.00 0.00 0.00 40 1013.3
20260831155028 85 84 8.0 14.0 0.00 0.00 0.00 39 1013.2
20260831154617 85 86 4.0 14.0 0.00 0.00 0.00 39 1013.2
20260831154027 85 134 9.0 14.0 0.00 0.00 0.00 39 1013.2
20260831153531 86 143 7.0 12.0 0.00 0.00 0.00 39 1013.2
20260831153056 86 126 7.0 12.0 0.00 0.00 0.00 39 1013.2
20260831152526 86 91 8.0 16.0 0.00 0.00 0.00 39 1013.2
20260831152030 86 130 5.0 16.0 0.00 0.00 0.00 39 1013.2
20260831151557 86 123 10.0 16.0 0.00 0.00 0.00 39 1013.1
20260831151028 86 110 9.0 16.0 0.00 0.00 0.00 40 1013.1
20260831150527 86 147 9.0 15.0 0.00 0.00 0.00 40 1013.1
20260831150049 86 186 10.0 19.0 0.00 0.00 0.00 40 1013.0
20260831145528 87 128 10.0 19.0 0.00 0.00 0.00 40 1013.1
20260831145026 87 132 9.0 18.0 0.00 0.00 0.00 39 1013.1
20260831144554 88 153 6.0 16.0 0.00 0.00 0.00 39 1013.2
20260831144026 87 117 11.0 16.0 0.00 0.00 0.00 39 1013.2
20260831143526 88 147 8.0 16.0 0.00 0.00 0.00 40 1013.2
20260831143052 87 146 9.0 16.0 0.00 0.00 0.00 40 1013.3
20260831142525 88 129 9.0 16.0 0.00 0.00 0.00 41 1013.2
20260831142027 88 144 8.0 13.0 0.00 0.00 0.00 41 1013.4
20260831141550 88 158 7.0 13.0 0.00 0.00 0.00 42 1013.4
20260831141026 88 144 7.0 13.0 0.00 0.00 0.00 42 1013.4
20260831140527 89 105 5.0 11.0 0.00 0.00 0.00 41 1013.4
20260831140041 89 105 2.0 8.0 0.00 0.00 0.00 41 1013.5
20260831135528 89 71 3.0 9.0 0.00 0.00 0.00 41 1013.6
20260831135025 89 349 4.0 15.0 0.00 0.00 0.00 40 1013.4
20260831134544 89 167 5.0 15.0 0.00 0.00 0.00 42 1013.4
20260831134029 89 115 8.0 15.0 0.00 0.00 0.00 43 1013.4
20260831133526 89 122 6.0 13.0 0.00 0.00 0.00 42 1013.4
20260831133052 90 84 1.0 12.0 0.00 0.00 0.00 42 1013.4
20260831132529 89 131 7.0 12.0 0.00 0.00 0.00 43 1013.4
20260831132031 90 103 3.0 10.0 0.00 0.00 0.00 42 1013.4
20260831131544 89 101 5.0 11.0 0.00 0.00 0.00 43 1013.4
20260831131026 89 64 5.0 13.0 0.00 0.00 0.00 43 1013.4
20260831130525 90 122 4.0 13.0 0.00 0.00 0.00 43 1013.4
20260831130050 90 101 5.0 13.0 0.00 0.00 0.00 42 1013.4
20260831125524 90 86 4.0 13.0 0.00 0.00 0.00 42 1013.4
20260831125026 89 122 6.0 13.0 0.00 0.00 0.00 42 1013.5
20260831124543 90 84 5.0 13.0 0.00 0.00 0.00 41 1013.5
20260831124024 90 88 3.0 11.0 0.00 0.00 0.00 42 1013.6
20260831123527 89 74 6.0 15.0 0.00 0.00 0.00 42 1013.7
20260831123048 90 55 7.0 15.0 0.00 0.00 0.00 41 1013.7
20260831122527 90 74 6.0 12.0 0.00 0.00 0.00 42 1013.8
20260831122026 89 56 5.0 12.0 0.00 0.00 0.00 42 1013.8
20260831121543 89 97 3.0 13.0 0.00 0.00 0.00 42 1013.8
20260831121025 89 75 6.0 13.0 0.00 0.00 0.00 43 1013.8
20260831120525 89 112 7.0 14.0 0.00 0.00 0.00 44 1013.9
20260831120051 89 79 7.0 14.0 0.00 0.00 0.00 45 1014.0
20260831115525 88 64 8.0 14.0 0.00 0.00 0.00 45 1013.9
20260831115029 89 133 7.0 14.0 0.00 0.00 0.00 43 1014.0
20260831114554 89 148 6.0 12.0 0.00 0.00 0.00 43 1014.0
20260831114027 89 112 6.0 12.0 0.00 0.00 0.00 43 1014.2
20260831113526 89 112 7.0 12.0 0.00 0.00 0.00 42 1014.1
20260831113049 89 109 7.0 12.0 0.00 0.00 0.00 42 1014.2
20260831112531 89 98 3.0 12.0 0.00 0.00 0.00 42 1014.2
20260831112025 89 347 4.0 12.0 0.00 0.00 0.00 40 1014.3
20260831111605 89 66 6.0 12.0 0.00 0.00 0.00 42 1014.4
20260831111024 89 9 5.0 12.0 0.00 0.00 0.00 42 1014.4
20260831110526 88 32 7.0 13.0 0.00 0.00 0.00 42 1014.4
20260831110109 88 103 6.0 13.0 0.00 0.00 0.00 42 1014.5
20260831105525 89 81 3.0 11.0 0.00 0.00 0.00 41 1014.5
20260831105025 89 93 4.0 11.0 0.00 0.00 0.00 40 1014.5
20260831104542 89 30 4.0 11.0 0.00 0.00 0.00 41 1014.6
20260831104024 89 355 7.0 11.0 0.00 0.00 0.00 40 1014.6
20260831103525 88 83 3.0 14.0 0.00 0.00 0.00 41 1014.7
20260831103054 89 344 7.0 14.0 0.00 0.00 0.00 40 1014.7
20260831102528 88 49 5.0 11.0 0.00 0.00 0.00 41 1014.8
20260831102026 88 35 5.0 12.0 0.00 0.00 0.00 41 1014.8
20260831101547 88 355 3.0 12.0 0.00 0.00 0.00 41 1014.7
20260831101028 88 9 7.0 12.0 0.00 0.00 0.00 41 1014.9
20260831100525 87 53 5.0 12.0 0.00 0.00 0.00 41 1014.8
20260831100040 88 46 5.0 12.0 0.00 0.00 0.00 41 1014.9
20260831095524 88 348 6.0 12.0 0.00 0.00 0.00 41 1014.9
20260831095026 88 57 3.0 14.0 0.00 0.00 0.00 42 1014.9
20260831094549 88 43 7.0 14.0 0.00 0.00 0.00 42 1014.9
20260831094029 87 51 5.0 12.0 0.00 0.00 0.00 42 1014.9
20260831093529 87 63 4.0 13.0 0.00 0.00 0.00 42 1015.0
20260831093049 87 74 5.0 13.0 0.00 0.00 0.00 42 1015.1
20260831092525 87 51 6.0 13.0 0.00 0.00 0.00 42 1015.1
20260831092024 87 55 5.0 13.0 0.00 0.00 0.00 42 1015.1
20260831091551 87 94 8.0 12.0 0.00 0.00 0.00 42 1015.1
20260831091025 87 35 4.0 11.0 0.00 0.00 0.00 42 1015.1
20260831090524 87 19 4.0 11.0 0.00 0.00 0.00 42 1015.2
20260831090048 87 55 5.0 9.0 0.00 0.00 0.00 43 1015.2
20260831085524 87 68 3.0 11.0 0.00 0.00 0.00 42 1015.2
20260831085029 86 12 6.0 11.0 0.00 0.00 0.00 44 1015.2
20260831084550 86 60 6.0 13.0 0.00 0.00 0.00 44 1015.2
20260831084025 86 340 3.0 14.0 0.00 0.00 0.00 44 1015.2
20260831083524 86 43 7.0 14.0 0.00 0.00 0.00 44 1015.3
20260831083048 86 63 6.0 14.0 0.00 0.00 0.00 44 1015.3
20260831082525 86 90 7.0 13.0 0.00 0.00 0.00 44 1015.3
20260831082025 85 115 5.0 13.0 0.00 0.00 0.00 45 1015.3
20260831081614 85 22 7.0 13.0 0.00 0.00 0.00 44 1015.3
20260831081025 85 71 5.0 13.0 0.00 0.00 0.00 45 1015.2
20260831080526 86 28 2.0 13.0 0.00 0.00 0.00 45 1015.2
20260831080049 85 9 5.0 11.0 0.00 0.00 0.00 46 1015.1
20260831075525 85 27 5.0 11.0 0.00 0.00 0.00 46 1015.2
20260831075027 85 5 4.0 8.0 0.00 0.00 0.00 46 1015.2
20260831074553 84 0 1.0 6.0 0.00 0.00 0.00 46 1015.2
20260831074028 84 342 2.0 10.0 0.00 0.00 0.00 47 1015.2
20260831073525 83 13 4.0 10.0 0.00 0.00 0.00 47 1015.2
20260831073120 84 40 3.0 8.0 0.00 0.00 0.00 47 1015.1
20260831072526 83 28 3.0 8.0 0.00 0.00 0.00 46 1015.2
20260831072026 83 28 2.0 6.0 0.00 0.00 0.00 47 1015.1
20260831071546 83 342 3.0 9.0 0.00 0.00 0.00 48 1015.1
20260831071029 83 334 2.0 9.0 0.00 0.00 0.00 48 1015.1
20260831070525 82 304 5.0 9.0 0.00 0.00 0.00 49 1015.1
20260831070046 82 344 4.0 9.0 0.00 0.00 0.00 49 1015.1
20260831065527 82 355 3.0 9.0 0.00 0.00 0.00 49 1015.1
20260831065027 82 302 4.0 8.0 0.00 0.00 0.00 50 1015.1
20260831064557 82 341 3.0 8.0 0.00 0.00 0.00 48 1015.1